Location: Alafon
(8.4500°N, 4.2333°E)
Time: 18:41:54
(UTC+00:00)

A-11 Canister half - Pass Details

Date: 06 August 2021
Orbit: 1515 x 1685 km, 47.2° (Epoch: 19 September)

Event Time Altitude Azimuth Distance (km) Brightness Sun altitude
Rises 12:39:51 0° 221° (SW) 4,655 11.6 75.2°
Reaches altitude 10° 12:42:51 10° 222° (SW) 3,681 11.2 74.6°
Maximum altitude 12:52:09 85° 310° (NW) 1,554 11.3 72.6°
Drops below altitude 10° 13:01:46 10° 39° (NE) 3,789 11.2 70.5°
Sets 13:04:54 0° 40° (NE) 4,797 11.5 69.8°
